EW8829 Weather Reports


Display with metric or nautical units.
time (UTC)temp
F
wind
direction
speed
MPH
gust
MPH
rain 1hr
in
rain 24hr
in
rain mn
in
humidity
%
barometer
mb
20260831075918 59 22 0.0 1.0 0.00 0.00 0.00 99 1019.2
20260831075414 59 83 2.0 2.0 0.00 0.00 0.00 99 1019.2
20260831074909 60 89 1.0 2.0 0.00 0.00 0.00 99 1019.4
20260831074408 60 75 2.0 2.0 0.00 0.00 0.00 99 1019.4
20260831073903 60 21 1.0 2.0 0.00 0.00 0.00 99 1019.4
20260831073402 60 50 0.0 1.0 0.00 0.00 0.00 99 1019.4
20260831072857 60 53 0.0 1.0 0.00 0.00 0.00 99 1019.2
20260831072353 61 11 1.0 2.0 0.00 0.00 0.00 99 1019.2
20260831071849 61 37 1.0 2.0 0.00 0.00 0.00 99 1019.5
20260831071348 61 43 2.0 2.0 0.00 0.00 0.00 99 1019.4
20260831070843 61 39 1.0 2.0 0.00 0.00 0.00 99 1019.4
20260831070342 61 28 2.0 2.0 0.00 0.00 0.00 99 1019.4
20260831065841 61 67 2.0 3.0 0.00 0.00 0.00 99 1019.4
20260831065339 61 21 1.0 1.0 0.00 0.00 0.00 99 1019.4
20260831064834 62 73 1.0 2.0 0.00 0.00 0.00 99 1019.3
20260831064330 62 95 1.0 1.0 0.00 0.00 0.00 99 1019.3
20260831063826 62 310 0.0 1.0 0.00 0.00 0.00 99 1019.3
20260831063326 62 50 1.0 1.0 0.00 0.00 0.00 99 1019.0
20260831062826 62 58 0.0 2.0 0.00 0.00 0.00 99 1019.4
20260831062322 63 58 1.0 2.0 0.00 0.00 0.00 99 1019.5
20260831061821 63 64 1.0 1.0 0.00 0.00 0.00 99 1019.3
20260831061320 63 89 0.0 1.0 0.00 0.00 0.00 99 1019.6
20260831060816 63 66 0.0 0.0 0.00 0.00 0.00 99 1019.6
20260831060310 63 50 0.0 1.0 0.00 0.00 0.00 98 1019.8
20260831055809 63 43 0.0 2.0 0.00 0.00 0.00 98 1019.7
20260831055306 63 94 2.0 2.0 0.00 0.00 0.00 98 1019.7
20260831054800 63 89 0.0 0.0 0.00 0.00 0.00 98 1019.7
20260831054255 63 37 0.0 0.0 0.00 0.00 0.00 98 1019.6
20260831053754 63 85 0.0 1.0 0.00 0.00 0.00 98 1019.8
20260831053253 63 89 1.0 2.0 0.00 0.00 0.00 98 1019.9
20260831052747 63 22 0.0 0.0 0.00 0.00 0.00 98 1019.8
20260831052247 64 44 1.0 2.0 0.00 0.00 0.00 97 1019.9
20260831051745 64 82 1.0 2.0 0.00 0.00 0.00 97 1019.5
20260831051244 64 50 0.0 1.0 0.00 0.00 0.00 97 1020.0
20260831050739 64 31 0.0 1.0 0.00 0.00 0.00 97 1019.8
20260831050237 64 89 1.0 1.0 0.00 0.00 0.00 97 1019.8
20260831045732 64 55 0.0 1.0 0.00 0.00 0.00 97 1020.0
20260831045227 64 48 0.0 1.0 0.00 0.00 0.00 97 1019.7
20260831044721 64 103 0.0 0.0 0.00 0.00 0.00 97 1019.9
20260831044211 64 81 0.0 1.0 0.00 0.00 0.00 97 1019.9
20260831043707 64 89 0.0 0.0 0.00 0.00 0.00 97 1019.9
20260831043202 64 47 1.0 1.0 0.00 0.00 0.00 97 1020.0
20260831042701 64 297 0.0 1.0 0.00 0.00 0.00 97 1019.8
20260831042156 64 77 0.0 1.0 0.00 0.00 0.00 96 1020.0
20260831041650 64 88 1.0 1.0 0.00 0.00 0.00 96 1019.8
20260831041144 64 76 0.0 2.0 0.00 0.00 0.00 96 1019.7
20260831040640 64 22 0.0 0.0 0.00 0.00 0.00 96 1019.8
20260831040138 64 16 1.0 1.0 0.00 0.00 0.00 96 1019.6
20260831035638 64 43 1.0 1.0 0.00 0.00 0.00 96 1019.8
20260831035137 64 60 0.0 1.0 0.00 0.00 0.00 96 1019.7
20260831034636 65 89 1.0 2.0 0.00 0.00 0.00 96 1019.7
20260831034133 65 37 0.0 0.0 0.00 0.00 0.00 95 1020.1
20260831033628 65 47 0.0 2.0 0.00 0.00 0.00 96 1019.8
20260831033123 65 37 0.0 1.0 0.00 0.00 0.00 96 1019.6
20260831032622 65 77 1.0 1.0 0.00 0.00 0.00 95 1019.7
20260831032118 65 89 0.0 0.0 0.00 0.00 0.00 95 1019.7
20260831031618 65 89 1.0 1.0 0.00 0.00 0.00 95 1019.9
20260831031117 65 322 0.0 0.0 0.00 0.00 0.00 95 1019.9
20260831030616 65 37 0.0 0.0 0.00 0.00 0.00 95 1019.7
20260831030116 65 17 1.0 1.0 0.00 0.00 0.00 94 1019.7
20260831025614 65 29 1.0 1.0 0.00 0.00 0.00 94 1019.6
20260831025109 65 357 0.0 1.0 0.00 0.00 0.00 94 1019.8
20260831024606 65 72 1.0 2.0 0.00 0.00 0.00 94 1019.8
20260831024104 65 61 1.0 1.0 0.00 0.00 0.00 93 1019.7
20260831023602 65 309 0.0 0.0 0.00 0.00 0.00 92 1019.8
20260831023102 65 311 0.0 1.0 0.00 0.00 0.00 93 1019.7
20260831022556 65 22 0.0 0.0 0.00 0.00 0.00 92 1019.6
20260831022052 65 82 0.0 1.0 0.00 0.00 0.00 91 1019.8
20260831021550 65 22 0.0 1.0 0.00 0.00 0.00 92 1019.8
20260831021047 66 32 0.0 1.0 0.00 0.00 0.00 92 1019.8
20260831020542 66 66 0.0 2.0 0.00 0.00 0.00 90 1019.6
20260831020037 66 45 1.0 1.0 0.00 0.00 0.00 91 1019.8
20260831015532 66 55 0.0 2.0 0.00 0.00 0.00 90 1019.7
20260831015027 66 50 0.0 2.0 0.00 0.00 0.00 90 1019.7
20260831014522 66 64 1.0 2.0 0.00 0.00 0.00 89 1019.6
20260831014018 66 41 0.0 2.0 0.00 0.00 0.00 90 1019.7
20260831013514 67 30 1.0 2.0 0.00 0.00 0.00 88 1019.7
20260831013008 67 33 0.0 2.0 0.00 0.00 0.00 88 1019.7
20260831012503 67 328 1.0 2.0 0.00 0.00 0.00 87 1019.7
20260831012002 67 312 1.0 2.0 0.00 0.00 0.00 88 1019.6
20260831011451 66 129 0.0 3.0 0.00 0.00 0.00 89 1019.5
20260831010948 66 37 0.0 2.0 0.00 0.00 0.00 90 1019.3
20260831010447 67 89 1.0 2.0 0.00 0.00 0.00 90 1019.6
20260831005943 67 84 2.0 2.0 0.00 0.00 0.00 89 1019.2
20260831005439 67 89 1.0 2.0 0.00 0.00 0.00 89 1019.2
20260831004938 67 121 0.0 2.0 0.00 0.00 0.00 88 1019.3
20260831004435 67 93 1.0 1.0 0.00 0.00 0.00 89 1019.4
20260831003930 67 266 2.0 3.0 0.00 0.00 0.00 89 1019.1
20260831003426 67 141 0.0 1.0 0.00 0.00 0.00 91 1019.2
20260831002925 67 245 2.0 3.0 0.00 0.00 0.00 91 1019.1
20260831002424 66 315 0.0 0.0 0.00 0.00 0.00 92 1018.9
20260831001920 66 322 0.0 1.0 0.00 0.00 0.00 93 1018.9
20260831001415 66 328 1.0 1.0 0.00 0.00 0.00 94 1018.9
20260831000912 67 37 0.0 0.0 0.00 0.00 0.00 93 1018.7
20260831000410 67 11 0.0 0.0 0.00 0.00 0.00 92 1018.7
20260830235906 67 309 0.0 1.0 0.00 0.00 0.00 93 1018.4
20260830235401 67 28 1.0 2.0 0.00 0.00 0.00 92 1018.3
20260830234856 67 309 0.0 1.0 0.00 0.00 0.00 93 1018.3
20260830234351 67 347 0.0 0.0 0.00 0.00 0.00 93 1018.3
20260830233848 67 37 0.0 1.0 0.00 0.00 0.00 92 1018.4
20260830233343 67 301 1.0 1.0 0.00 0.00 0.00 93 1018.2
20260830232838 67 345 0.0 1.0 0.00 0.00 0.00 92 1018.3
20260830232334 67 343 0.0 1.0 0.00 0.00 0.00 93 1018.4
20260830231830 67 50 0.0 0.0 0.00 0.00 0.00 93 1018.1
20260830231330 67 49 0.0 1.0 0.00 0.00 0.00 93 1018.6
20260830230830 67 25 1.0 2.0 0.00 0.00 0.00 92 1018.4
20260830230325 68 24 1.0 1.0 0.00 0.00 0.00 92 1018.4
20260830225825 68 51 1.0 2.0 0.00 0.00 0.00 91 1018.4
20260830225321 68 32 0.0 1.0 0.00 0.00 0.00 92 1018.2
20260830224820 68 37 0.0 0.0 0.00 0.00 0.00 92 1018.3
20260830224314 68 52 0.0 1.0 0.00 0.00 0.00 92 1018.2
20260830223811 68 336 0.0 1.0 0.00 0.00 0.00 92 1018.4
20260830223307 68 6 0.0 1.0 0.00 0.00 0.00 92 1018.2
20260830222801 68 50 0.0 0.0 0.00 0.00 0.00 92 1018.2
20260830222256 68 37 0.0 0.0 0.00 0.00 0.00 92 1018.1
20260830221752 69 19 0.0 0.0 0.00 0.00 0.00 91 1018.1
20260830221249 68 315 0.0 0.0 0.00 0.00 0.00 91 1018.1
20260830220749 69 29 0.0 0.0 0.00 0.00 0.00 91 1018.2
20260830220248 69 69 0.0 1.0 0.00 0.00 0.00 90 1018.2
20260830215747 69 29 0.0 1.0 0.00 0.00 0.00 90 1018.1
20260830215242 69 15 0.0 0.0 0.00 0.00 0.00 89 1018.0
20260830214737 69 56 2.0 2.0 0.00 0.00 0.00 87 1018.0
20260830214237 69 15 0.0 0.0 0.00 0.00 0.00 87 1018.0
20260830213736 69 13 0.0 1.0 0.00 0.00 0.00 88 1018.0
20260830213231 70 48 0.0 0.0 0.00 0.00 0.00 85 1018.0
20260830212727 70 15 0.0 0.0 0.00 0.00 0.00 85 1018.2
20260830212223 70 309 0.0 0.0 0.00 0.00 0.00 84 1018.4
20260830211717 71 6 0.0 1.0 0.00 0.00 0.00 82 1018.3
20260830211216 71 280 1.0 2.0 0.00 0.00 0.00 80 1018.4
20260830210712 71 246 0.0 0.0 0.00 0.00 0.00 79 1018.4
20260830210212 71 284 1.0 2.0 0.00 0.00 0.00 81 1018.4
20260830205709 71 242 0.0 2.0 0.00 0.00 0.00 79 1018.2
20260830205204 71 204 2.0 3.0 0.00 0.00 0.00 80 1018.3
20260830204704 71 242 0.0 1.0 0.00 0.00 0.00 79 1018.3
20260830204202 71 309 0.0 1.0 0.00 0.00 0.00 80 1018.0
20260830203659 70 55 0.0 0.0 0.00 0.00 0.00 83 1018.2
20260830203154 70 318 1.0 2.0 0.00 0.00 0.00 85 1018.2
20260830202648 70 84 0.0 2.0 0.00 0.00 0.00 80 1018.2
20260830202143 70 9 1.0 2.0 0.00 0.00 0.00 80 1018.3
20260830201643 70 64 1.0 2.0 0.00 0.00 0.00 82 1018.3
20260830201138 70 322 0.0 1.0 0.00 0.00 0.00 81 1018.2
20260830200633 71 43 0.0 1.0 0.00 0.00 0.00 79 1018.0
20260830200133 71 11 1.0 2.0 0.00 0.00 0.00 78 1018.0
20260830195628 71 74 1.0 1.0 0.00 0.00 0.00 78 1018.0
20260830195126 71 343 0.0 1.0 0.00 0.00 0.00 79 1017.9
20260830194626 72 12 1.0 3.0 0.00 0.00 0.00 73 1017.8
20260830194120 72 54 1.0 2.0 0.00 0.00 0.00 73 1018.2
20260830193615 72 19 1.0 2.0 0.00 0.00 0.00 72 1018.2
20260830193109 73 41 2.0 2.0 0.00 0.00 0.00 77 1017.9
20260830192600 73 29 2.0 2.0 0.00 0.00 0.00 75 1018.0
20260830192059 73 47 2.0 4.0 0.00 0.00 0.00 74 1018.3
20260830191554 73 11 2.0 4.0 0.00 0.00 0.00 75 1018.0
20260830191050 74 300 2.0 2.0 0.00 0.00 0.00 79 1017.8
20260830190545 75 333 1.0 2.0 0.00 0.00 0.00 77 1018.2
20260830190040 75 272 2.0 3.0 0.00 0.00 0.00 72 1017.7
20260830185533 76 88 2.0 2.0 0.00 0.00 0.00 74 1017.7
20260830185029 76 274 2.0 2.0 0.00 0.00 0.00 70 1017.8
20260830184527 76 331 0.0 3.0 0.00 0.00 0.00 70 1017.7
20260830184017 77 202 0.0 2.0 0.00 0.00 0.00 70 1017.6
20260830183511 77 302 0.0 3.0 0.00 0.00 0.00 69 1017.8
20260830183008 77 227 2.0 4.0 0.00 0.00 0.00 68 1017.9
20260830182502 77 286 5.0 5.0 0.00 0.00 0.00 67 1017.7
20260830181959 77 183 1.0 3.0 0.00 0.00 0.00 70 1017.9
20260830181454 77 216 4.0 6.0 0.00 0.00 0.00 67 1018.0
20260830180948 77 259 1.0 4.0 0.00 0.00 0.00 66 1017.8
20260830180448 78 217 0.0 3.0 0.00 0.00 0.00 66 1017.9
20260830175947 77 347 2.0 2.0 0.00 0.00 0.00 66 1018.0
20260830175446 77 284 0.0 4.0 0.00 0.00 0.00 66 1018.2
20260830174941 78 264 2.0 5.0 0.00 0.00 0.00 65 1018.3
20260830174437 78 147 0.0 5.0 0.00 0.00 0.00 65 1018.0
20260830173932 78 284 4.0 4.0 0.00 0.00 0.00 65 1018.3
20260830173428 77 299 5.0 8.0 0.00 0.00 0.00 66 1018.1
20260830172924 78 248 2.0 6.0 0.00 0.00 0.00 65 1018.2
20260830172420 78 242 4.0 7.0 0.00 0.00 0.00 62 1018.0
20260830171916 80 299 4.0 6.0 0.00 0.00 0.00 63 1018.4
20260830171411 79 297 2.0 4.0 0.00 0.00 0.00 65 1018.3
20260830170906 77 252 3.0 6.0 0.00 0.00 0.00 64 1018.1
20260830170405 77 257 2.0 9.0 0.00 0.00 0.00 65 1018.2
20260830165903 78 254 4.0 6.0 0.00 0.00 0.00 63 1018.2
20260830165400 79 237 3.0 3.0 0.00 0.00 0.00 63 1018.4
20260830164856 78 131 2.0 4.0 0.00 0.00 0.00 68 1018.4
20260830164352 78 279 2.0 2.0 0.00 0.00 0.00 65 1018.6
20260830163848 77 215 2.0 3.0 0.00 0.00 0.00 67 1018.6
20260830163343 77 281 2.0 8.0 0.00 0.00 0.00 68 1018.7
20260830162838 76 292 2.0 9.0 0.00 0.00 0.00 71 1018.6
20260830162334 76 249 4.0 8.0 0.00 0.00 0.00 68 1018.7
20260830161834 77 220 2.0 4.0 0.00 0.00 0.00 67 1019.0
20260830161333 76 199 1.0 5.0 0.00 0.00 0.00 69 1019.0
20260830160829 76 212 4.0 5.0 0.00 0.00 0.00 68 1019.2
20260830160324 75 260 3.0 7.0 0.00 0.00 0.00 70 1019.0
20260830155820 74 305 5.0 9.0 0.00 0.00 0.00 71 1019.2
20260830155316 75 259 3.0 9.0 0.00 0.00 0.00 70 1019.0
20260830154816 76 236 7.0 8.0 0.00 0.00 0.00 68 1019.1
20260830154312 74 311 2.0 6.0 0.00 0.00 0.00 72 1019.2
20260830153809 74 283 2.0 5.0 0.00 0.00 0.00 71 1019.1
20260830153304 74 345 1.0 9.0 0.00 0.00 0.00 71 1019.2
20260830152802 75 235 2.0 6.0 0.00 0.00 0.00 71 1019.4
20260830152257 73 240 0.0 7.0 0.00 0.00 0.00 73 1019.3
20260830151757 74 269 4.0 9.0 0.00 0.00 0.00 71 1019.2
20260830151256 73 155 2.0 5.0 0.00 0.00 0.00 72 1019.1
20260830150751 72 245 1.0 2.0 0.00 0.00 0.00 75 1019.4
20260830150251 71 299 2.0 4.0 0.00 0.00 0.00 76 1019.6
20260830145745 71 134 2.0 3.0 0.00 0.00 0.00 76 1019.7
20260830145241 71 321 2.0 3.0 0.00 0.00 0.00 76 1019.7
20260830144736 71 246 2.0 3.0 0.00 0.00 0.00 75 1019.5
20260830144232 69 209 0.0 2.0 0.00 0.00 0.00 77 1019.6
20260830143728 69 44 0.0 2.0 0.00 0.00 0.00 77 1019.5
20260830143226 69 132 0.0 4.0 0.00 0.00 0.00 78 1019.7
20260830142721 68 126 0.0 2.0 0.00 0.00 0.00 80 1019.5
20260830142216 67 230 0.0 5.0 0.00 0.00 0.00 81 1019.6
20260830141711 67 213 0.0 3.0 0.00 0.00 0.00 82 1019.3
20260830141206 67 272 1.0 3.0 0.00 0.00 0.00 81 1019.1
20260830140700 66 134 1.0 4.0 0.00 0.00 0.00 82 1019.3
20260830140150 67 97 0.0 2.0 0.00 0.00 0.00 81 1019.4
20260830135646 66 274 0.0 2.0 0.00 0.00 0.00 81 1019.7
20260830135141 66 237 2.0 2.0 0.00 0.00 0.00 83 1019.7
20260830134637 65 261 2.0 2.0 0.00 0.00 0.00 85 1019.5
20260830134131 65 131 0.0 0.0 0.00 0.00 0.00 87 1019.7
20260830133627 64 76 0.0 0.0 0.00 0.00 0.00 86 1019.8
20260830133122 63 50 0.0 0.0 0.00 0.00 0.00 88 1019.8
20260830132619 63 89 0.0 1.0 0.00 0.00 0.00 92 1019.9
20260830132114 62 309 0.0 0.0 0.00 0.00 0.00 93 1019.9
20260830131613 61 126 0.0 1.0 0.00 0.00 0.00 95 1019.8
20260830131108 61 67 0.0 2.0 0.00 0.00 0.00 96 1020.0
20260830130602 60 129 1.0 2.0 0.00 0.00 0.00 97 1020.2
20260830130057 60 67 1.0 2.0 0.00 0.00 0.00 97 1020.2
20260830125552 60 59 2.0 2.0 0.00 0.00 0.00 97 1020.3
20260830125051 60 69 0.0 1.0 0.00 0.00 0.00 97 1020.1
20260830124550 59 109 1.0 2.0 0.00 0.00 0.00 97 1020.3
20260830124045 59 111 0.0 2.0 0.00 0.00 0.00 97 1020.1
20260830123543 59 42 1.0 2.0 0.00 0.00 0.00 97 1020.4
20260830123038 59 57 1.0 2.0 0.00 0.00 0.00 97 1020.2
20260830122534 59 48 0.0 2.0 0.00 0.00 0.00 98 1020.1
20260830122030 58 81 2.0 2.0 0.00 0.00 0.00 99 1020.2
20260830121526 57 44 0.0 2.0 0.00 0.00 0.00 99 1020.2
20260830121025 57 97 1.0 2.0 0.00 0.00 0.00 99 1020.0
20260830120520 57 97 2.0 2.0 0.00 0.00 0.00 99 1020.3
20260830120017 56 59 0.0 2.0 0.00 0.00 0.00 99 1020.2
20260830115513 56 71 1.0 1.0 0.00 0.00 0.00 99 1020.1
20260830115008 56 110 2.0 3.0 0.00 0.00 0.00 99 1020.5
20260830114505 56 62 1.0 2.0 0.00 0.00 0.00 99 1020.3
20260830114004 56 71 1.0 2.0 0.00 0.00 0.00 99 1020.5
20260830113459 55 83 2.0 2.0 0.00 0.00 0.00 99 1020.5
20260830112954 55 66 2.0 2.0 0.00 0.00 0.00 99 1020.6
20260830112450 55 74 1.0 2.0 0.00 0.00 0.00 99 1020.8
20260830111947 55 76 0.0 2.0 0.00 0.00 0.00 99 1020.6
20260830111442 55 46 2.0 2.0 0.00 0.00 0.00 99 1020.9
20260830110937 55 49 2.0 2.0 0.00 0.00 0.00 99 1020.7
20260830110432 55 41 2.0 2.0 0.00 0.00 0.00 99 1020.6
20260830105932 55 38 1.0 2.0 0.00 0.00 0.00 99 1020.8
20260830105428 55 37 2.0 2.0 0.00 0.00 0.00 99 1020.8
20260830104924 55 75 2.0 2.0 0.00 0.00 0.00 99 1020.8
20260830104420 54 64 0.0 2.0 0.00 0.00 0.00 99 1020.5
20260830103920 54 94 1.0 2.0 0.00 0.00 0.00 99 1020.6
20260830103416 54 66 1.0 2.0 0.00 0.00 0.00 99 1020.7
20260830102914 54 38 2.0 2.0 0.00 0.00 0.00 99 1020.6
20260830102409 54 65 2.0 2.0 0.00 0.00 0.00 99 1020.5
20260830101906 55 84 2.0 2.0 0.00 0.00 0.00 99 1020.5
20260830101401 55 75 1.0 2.0 0.00 0.00 0.00 99 1020.6
20260830100901 55 54 2.0 2.0 0.00 0.00 0.00 99 1020.5
20260830100359 55 87 1.0 2.0 0.00 0.00 0.00 99 1020.6
20260830095858 55 104 1.0 2.0 0.00 0.00 0.00 99 1020.6
20260830095354 55 95 0.0 0.0 0.00 0.00 0.00 99 1020.6
20260830094850 55 64 0.0 1.0 0.00 0.00 0.00 99 1020.7
20260830094347 55 44 1.0 1.0 0.00 0.00 0.00 99 1020.7
20260830093842 55 24 0.0 2.0 0.00 0.00 0.00 99 1020.8
20260830093337 55 51 1.0 2.0 0.00 0.00 0.00 99 1020.8
20260830092832 55 75 2.0 2.0 0.00 0.00 0.00 99 1021.0
20260830092328 55 50 2.0 2.0 0.00 0.00 0.00 99 1020.8
20260830091825 55 32 0.0 2.0 0.00 0.00 0.00 99 1021.0
20260830091324 55 87 1.0 1.0 0.00 0.00 0.00 99 1021.0
20260830090823 56 55 0.0 2.0 0.00 0.00 0.00 99 1020.9
20260830090319 55 39 1.0 2.0 0.00 0.00 0.00 99 1021.0
20260830085818 55 87 1.0 2.0 0.00 0.00 0.00 99 1021.0
20260830085314 56 68 2.0 2.0 0.00 0.00 0.00 99 1020.9
20260830084810 56 79 2.0 2.0 0.00 0.00 0.00 99 1020.9
20260830084305 56 51 1.0 2.0 0.00 0.00 0.00 99 1021.0
20260830083800 56 72 2.0 2.0 0.00 0.00 0.00 99 1021.0
20260830083256 56 63 1.0 2.0 0.00 0.00 0.00 99 1021.0
20260830082755 56 77 1.0 2.0 0.00 0.00 0.00 99 1021.1
20260830082250 56 71 2.0 2.0 0.00 0.00 0.00 99 1021.0
20260830081745 56 50 0.0 1.0 0.00 0.00 0.00 99 1021.2
20260830081240 56 44 0.0 1.0 0.00 0.00 0.00 99 1021.3
20260830080734 56 47 0.0 1.0 0.00 0.00 0.00 99 1021.1